Вернуться в каталог

IRIDIUM 33 DEB

АктивенPO
NORAD 34896·DEBRIS·🇺🇸 United States

Запущен Sep 14, 1997 с Baikonur Cosmodrome

Loading…

Ближайшие Пролёты (ближайшие 24 часа)

TLE

СвежийSource: Space-Track

Эпоха: Sep 14, 2026, 14:15 UTC

1 34896U 97051MY  26257.59410998  .00003256  00000-0  55413-3 0  9996
2 34896  86.3325 202.7032 0025665 357.5910 129.4602 14.68596291916651

Отслеживайте IRIDIUM 33 DEB в реальном времени с AllMySat

Download on the App Store